User: anonymous   Login
Location: *
(50.5492°N, 7.7469°E)
Time: 10:05:16
(UTC+00:00)
Language:

Cosmos 1626 - Orbit

View from above orbital plane
View from above orbital plane
View from above satellite
View from above satellite

Ground track
Ground track

The orbit data is extracted from the following two-line orbital elements,

1 15494U 85009A   19340.84478372 +.00000602 +00000-0 +23542-4 0  9993
2 15494 082.4809 065.4807 0003694 116.4084 243.7532 15.23901815905894
Epoch (UTC): 06 December 2019 20:16:29
Eccentricity: 0.0003694
inclination: 82.4809°
perigee height: 491 km
apogee height: 496 km
right ascension of ascending node: 65.4807°
argument of perigee: 116.4084°
revolutions per day: 15.23901815
mean anomaly at epoch: 243.7532°
orbit number at epoch: 90589

The dashed part of the orbit path shows where the satellite is in the earth's shadow,  

DLR